Weather History for Morristown, NJ

Change the Weather History Date:

Wednesday, February 6, 2013

  Actual Average Record
Temperature  
Mean Temperature 29 °F -  
Max Temperature 37 °F 35 °F 70 °F (1991)
Min Temperature 21 °F 17 °F -5 °F (1934)
Degree Days  
Heating Degree Days 36    
Moisture  
Dew Point 20 °F    
Average Humidity 75    
Maximum Humidity 100    
Minimum Humidity 38    
Precipitation  
Precipitation 0.00 in - - ()
Sea Level Pressure  
Sea Level Pressure 30.10 in    
Wind  
Wind Speed 2 mph (NW)    
Max Wind Speed 15 mph    
Max Gust Speed 23 mph    
Visibility 6 miles    
Events Fog    
Averages and records for this station are not official NWS values.
T = Trace of Precipitation, MM = Missing Value Source: NWS Daily Summary

Daily Weather History Graph

Daily Weather History Graph

Search for Another Location

Airport:

Trip Planner

Search our weather history database for the weather conditions in past years. The results will help you decide how hot, cold, wet, or windy it might be!

Date:

Astronomy

Feb. 06, 2013 Rise Set
Actual Time 7:02 AM EST 5:21 PM EST
Civil Twilight 6:33 AM EST 5:50 PM EST
Nautical Twilight 6:01 AM EST 6:22 PM EST
Astronomical Twilight 5:29 AM EST 6:54 PM EST
Moon 3:44 AM EST (2/6) 1:36 PM EST (2/6)
Length of Visible Light 11h 16m
Length of Day
10h 19m
Waning Crescent, 17% of the Moon is Illuminated
Feb 6
Waning Crescent
Feb 10
New
Feb 17
First Quarter
Feb 25
Full
Mar 4
Last Quarter

Hourly Weather History & Observations

Time (EST) Temp. Windchill Dew Point Humidity Pressure Visibility Wind Dir Wind Speed Gust Speed Precip Events Conditions
12:15 AM 28.4 °F - 28.4 °F 100% 29.92 in 2.5 mi Calm Calm - N/A   Overcast
12:35 AM 28.4 °F - 28.4 °F 100% 29.93 in 2.5 mi Calm Calm - N/A   Overcast
12:55 AM 28.4 °F - 28.4 °F 100% 29.92 in 2.5 mi Calm Calm - N/A   Overcast
1:15 AM 28.4 °F - 28.4 °F 100% 29.92 in 2.5 mi Calm Calm - N/A   Overcast
1:35 AM 28.4 °F - 28.4 °F 100% 29.92 in 2.0 mi Calm Calm - N/A   Overcast
1:55 AM 28.4 °F - 28.4 °F 100% 29.93 in 2.0 mi Calm Calm - N/A   Overcast
2:15 AM 28.4 °F - 28.4 °F 100% 29.92 in 2.0 mi Calm Calm - N/A   Overcast
2:35 AM 28.4 °F - 28.4 °F 100% 29.92 in 2.0 mi Calm Calm - N/A   Overcast
2:55 AM 28.4 °F - 28.4 °F 100% 29.92 in 2.5 mi Calm Calm - N/A   Overcast
3:15 AM 26.6 °F - 26.6 °F 100% 29.93 in 1.2 mi Calm Calm - N/A   Overcast
3:35 AM 26.6 °F - 26.6 °F 100% 29.93 in 2.0 mi Calm Calm - N/A   Overcast
3:55 AM 26.6 °F - 26.6 °F 100% 29.94 in 1.5 mi Calm Calm - N/A   Mostly Cloudy
4:15 AM 23.0 °F 18.4 °F 23.0 °F 100% 29.94 in 0.5 mi SSW 3.5 mph - N/A Fog Light Freezing Fog
4:35 AM 23.0 °F - 23.0 °F 100% 29.95 in 1.0 mi Calm Calm - N/A   Mostly Cloudy
4:55 AM 23.0 °F - 23.0 °F 100% 29.96 in 0.2 mi Calm Calm - N/A Fog Light Freezing Fog
5:15 AM 21.2 °F - 21.2 °F 100% 29.97 in 3.0 mi Calm Calm - N/A   Scattered Clouds
5:35 AM 21.2 °F 16.4 °F 21.2 °F 100% 29.98 in 3.0 mi West 3.5 mph - N/A   Scattered Clouds
6:45 AM 24.8 °F - 23.0 °F 93% 30.01 in 5.0 mi Calm Calm - N/A   Mostly Cloudy
7:45 AM 21.2 °F - 21.2 °F 100% 30.05 in 5.0 mi Calm Calm - N/A   Mostly Cloudy
8:45 AM 30.2 °F 22.6 °F 26.6 °F 86% 30.07 in 5.0 mi WNW 8.1 mph - N/A   Clear
10:45 AM 33.8 °F 25.3 °F 24.8 °F 70% 30.11 in 8.0 mi West 11.5 mph - N/A   Partly Cloudy
11:45 AM 35.6 °F 26.2 °F 21.2 °F 56% 30.11 in 10.0 mi NNW 15.0 mph 23.0 mph N/A   Mostly Cloudy
12:45 PM 35.6 °F 28.0 °F 21.2 °F 56% 30.11 in 10.0 mi NW 10.4 mph - N/A   Overcast
1:45 PM 37.4 °F 30.8 °F 17.6 °F 45% 30.12 in 10.0 mi NNW 9.2 mph 17.3 mph N/A   Overcast
2:45 PM 37.4 °F 30.8 °F 17.6 °F 45% 30.13 in 10.0 mi NW 9.2 mph 19.6 mph N/A   Overcast
3:45 PM 37.4 °F 29.8 °F 17.6 °F 45% 30.16 in 10.0 mi WNW 11.5 mph 18.4 mph N/A   Mostly Cloudy
4:45 PM 37.4 °F 30.8 °F 15.8 °F 41% 30.18 in 10.0 mi NNW 9.2 mph 17.3 mph N/A   Partly Cloudy
5:45 PM 35.6 °F 29.2 °F 12.2 °F 38% 30.22 in 10.0 mi NNW 8.1 mph - N/A   Clear
6:45 PM 33.8 °F 28.6 °F 12.2 °F 41% 30.26 in 10.0 mi NNW 5.8 mph - N/A   Clear
7:45 PM 32.0 °F 26.4 °F 15.8 °F 51% 30.29 in 10.0 mi North 5.8 mph - N/A   Clear
8:45 PM 30.2 °F 23.4 °F 12.2 °F 47% 30.32 in 10.0 mi North 6.9 mph - N/A   Clear
9:45 PM 28.4 °F - 12.2 °F 51% 30.32 in 10.0 mi Calm Calm - N/A   Clear
9:55 PM 28.4 °F 22.2 °F 12.2 °F 51% 30.33 in 10.0 mi North 5.8 mph - N/A   Clear
10:15 PM 28.4 °F 24.6 °F 10.4 °F 47% 30.33 in 10.0 mi NNE 3.5 mph - N/A   Clear
10:35 PM 28.4 °F - 10.4 °F 47% 30.34 in 10.0 mi Calm Calm - N/A   Clear
10:55 PM 26.6 °F - 10.4 °F 51% 30.35 in 10.0 mi Calm Calm - N/A   Clear
11:15 PM 26.6 °F - 10.4 °F 51% 30.36 in 10.0 mi Calm Calm - N/A   Clear
11:35 PM 23.0 °F - 12.2 °F 63% 30.35 in 10.0 mi Calm Calm - N/A   Clear
11:55 PM 23.0 °F - 12.2 °F 63% 30.36 in 10.0 mi Calm Calm - N/A   Clear